SB KEPS @ AMSAT $ORB13087.N 2Line Orbital Elements 13087.AMSAT
HR AMSAT ORBITAL ELEMENTS FOR AMATEUR SATELLITES IN NASA FORMAT FROM WA5QGD FORT WORTH,TX March 28, 2013 BID: ORB13087.N
DECODE 2-LINE ELSETS WITH THE FOLLOWING KEY: 1 AAAAAU 00 0 0 BBBBB.BBBBBBBB .CCCCCCCC 00000-0 00000-0 0 DDDZ 2 AAAAA EEE.EEEE FFF.FFFF GGGGGGG HHH.HHHH III.IIII JJ.JJJJJJJJKKKKKZ KEY: A-CATALOGNUM B-EPOCHTIME C-DECAY D-ELSETNUM E-INCLINATION F-RAAN G-ECCENTRICITY H-ARGPERIGEE I-MNANOM J-MNMOTION K-ORBITNUM Z-CHECKSUM
TO ALL RADIO AMATEURS BT
AO-07 1 07530U 74089B 13087.02020177 -.00000034 00000-0 53427-4 0 6418 2 07530 101.4270 079.4882 0012392 087.3205 305.5344 12.53595077755614 FO-29 1 24278U 96046B 13087.84026709 -.00000008 00000-0 28234-4 0 828 2 24278 098.5636 157.1189 0350550 012.5046 099.2054 13.52997230820448 SO-33 1 25509U 98061B 13087.50827412 .00000343 00000-0 54781-4 0 4627 2 25509 031.4322 164.3890 0351636 171.6643 311.6601 14.28982267753340 RS-22 1 27939U 03042A 13087.82906029 .00000305 00000-0 66026-4 0 2775 2 27939 097.7982 279.8737 0014428 081.9383 278.3458 14.64363809507539 VO-52 1 28650U 05017B 13087.12552485 .00000891 00000-0 11337-3 0 3805 2 28650 097.5740 109.8815 0026380 184.2157 207.3373 14.83657836427069 HO-68 1 36122U 09072B 13087.78650525 -.00000044 00000-0 00000 0 0 4093 2 36122 100.3167 146.8432 0007637 175.7353 184.3821 13.16302900157832 UO-11 1 14781U 84021B 13087.15913870 .00000438 00000-0 63592-4 0 1366 2 14781 097.9110 149.5999 0009218 183.1729 176.9426 14.80795229561944 AO-16 1 20439U 90005D 13086.89510115 .00000116 00000-0 59062-4 0 7082 2 20439 098.4651 028.8364 0011553 044.8045 347.0211 14.32150029210608 LO-19 1 20442U 90005G 13086.87586243 .00000115 00000-0 58287-4 0 6412 2 20442 098.4338 030.8652 0012340 035.6820 357.4456 14.32362816210796 AO-27 1 22825U 93061C 13086.86920394 .00000108 00000-0 59193-4 0 3452 2 22825 098.6117 031.7848 0008959 160.5393 232.9994 14.29543106 17014 IO-26 1 22826U 93061D 13087.39679058 .00000110 00000-0 59950-4 0 1025 2 22826 098.6056 032.6099 0009606 153.3478 353.0731 14.29825110 17213 GO-32 1 25397U 98043D 13087.50553615 .00000062 00000-0 45734-4 0 322 2 25397 098.4064 058.8112 0002001 138.5449 009.6723 14.23328335764469 NO-44 1 26931U 01043C 13087.54813904 .00000026 00000-0 42307-4 0 2915 2 26931 067.0507 107.3821 0006444 286.8303 216.9199 14.29899770599891 SO-50 1 27607U 02058C 13087.46178853 .00000358 00000-0 75887-4 0 264 2 27607 064.5562 149.8728 0055305 187.6097 273.4090 14.72827712551824 CO-55 1 27844U 03031E 13087.02848222 .00000159 00000-0 92968-4 0 6113 2 27844 098.7029 097.2791 0010945 122.1941 300.9521 14.21178170505200 CO-57 1 27848U 03031J 13086.53667288 .00000139 00000-0 84327-4 0 5569 2 27848 098.7115 096.2639 0010733 128.2196 017.8992 14.20908867505067 AO-51 1 28375U 04025K 13086.93991899 .00000149 00000-0 57529-4 0 5184 2 28375 098.1930 045.7005 0082303 261.6469 129.5463 14.41086158459633 CP3 1 31129U 07012N 13087.45522523 .00000680 00000-0 16323-3 0 4248 2 31129 097.8952 084.6746 0099055 319.2424 162.3993 14.53531830315269 CO-65 1 32785U 08021C 13087.18304208 .00000889 00000-0 11377-3 0 5893 2 32785 097.7599 147.0029 0014183 207.0995 218.1924 14.83668112265869 PRISM 1 33493U 09002B 13087.80392470 .00002270 00000-0 26890-3 0 6609 2 33493 098.2065 242.1592 0019375 094.2436 266.0987 14.85496563225987 SOHLA-1 1 33496U 09002E 13087.84199350 .00000345 00000-0 65578-4 0 59 2 33496 098.1251 204.1198 0006310 205.3085 300.8751 14.70218389224062 SO-67 1 35870U 09049F 13087.80932314 .00003298 00000-0 12994-3 0 9174 2 35870 097.2004 119.4436 0000709 183.5860 229.1242 15.26265386195991 TISAT-1 1 36799U 10035E 13087.90315000 .00001258 00000-0 16140-3 0 9317 2 36799 098.0363 172.1288 0013918 333.8367 026.2111 14.82984509146676 STUDSAT 1 36801U 10035G 13086.13629424 .00004378 00000-0 49121-3 0 6052 2 36801 098.0461 172.7907 0010703 318.2292 102.1940 14.87290116146523 FO-69 1 37227U 0 13058.47095845 .00000509 00000-0 79251-4 0 00791 2 37227 071.9702 108.5053 0016475 214.8087 145.2122 14.77380366012706 FO-70 1 37380U 0 13057.30123492 -.00000046 00000-0 14930-5 0 00760 2 37380 071.9749 111.9690 0018455 208.9506 151.0634 14.77121324012601 ALMASAT-1 1 38078U 12006B 13087.82707744 .00012336 00000-0 31057-3 0 1269 2 38078 069.4872 026.8922 0715861 249.4967 102.8077 14.20539681 57817 XATCOBEO 1 38082U 12006F 13087.80064793 .00038331 33393-5 79179-3 0 313 2 38082 069.4857 010.0438 0625778 240.1717 113.6015 14.43915641 58272 NOAA-10 1 16969U 86073A 13087.53898687 .00000033 00000-0 30735-4 0 2944 2 16969 098.5530 117.1068 0013489 120.9674 041.4216 14.27622777380432 NOAA-11 1 19531U 88089A 13087.27735311 .00000024 00000-0 34826-4 0 2963 2 19531 098.7120 172.2113 0012287 130.9694 297.7158 14.15006614264680 NOAA-12 1 21263U 91032A 13087.48056007 -.00000013 00000-0 13169-4 0 7692 2 21263 098.7040 113.4810 0014965 095.9818 040.4942 14.25552960137055 MET-3/5 1 21655U 91056A 13087.11657706 .00000369 00000-0 92542-3 0 6521 2 21655 082.5552 311.5852 0012696 336.8724 023.1825 13.17041314 39266 MET-2/21 1 22782U 93055A 13086.79026061 -.00000001 00000-0 -14136-4 0 6980 2 22782 082.5512 167.5008 0023599 079.9006 068.6877 13.83702770988388 OKEAN-4 1 23317U 94066A 13087.51287009 .00000609 00000-0 69418-4 0 1766 2 23317 082.5373 125.2960 0022836 131.1132 325.2066 14.84311425996971 NOAA-14 1 23455U 94089A 13087.47880586 -.00000058 00000-0 -77329-5 0 2535 2 23455 098.8038 173.1349 0009012 221.6895 243.7773 14.13899110940968 NOAA-15 1 25338U 98030A 13087.70181757 .00000131 00000-0 74592-4 0 6720 2 25338 098.7207 078.3656 0010534 008.5586 096.8775 14.25191500773373 RESURS 1 25394U 98043A 13087.45015606 .00000018 00000-0 25647-4 0 3376 2 25394 098.3549 067.1918 0002540 115.5289 030.7333 14.24323770764860 FENGYUN1 1 25730U 99025A 13087.46655619 .00001245 00000-0 72476-3 0 8375 2 25730 098.8727 048.0037 0022351 274.6691 233.0794 14.10316105714664 OKEAN-0 1 25860U 99039A 13087.83620523 .00000416 00000-0 70015-4 0 9043 2 25860 097.9817 051.4083 0001953 086.2676 328.6012 14.74516693736518 NOAA-16 1 26536U 00055A 13087.69386366 .00000117 00000-0 87689-4 0 1496 2 26536 099.0516 139.6279 0010247 008.3315 137.9854 14.12853186645208 NOAA-17 1 27453U 02032A 13087.73067759 .00000109 00000-0 64638-4 0 735 2 27453 098.3166 106.0660 0012246 047.4532 079.5245 14.24546829559269 NOAA-18 1 28654U 05018A 13087.70860079 .00000084 00000-0 71273-4 0 5560 2 28654 099.0918 054.8054 0015327 076.7277 338.5667 14.11789155404708 NOAA-19 1 33591U 09005A 13087.70775693 .00000071 00000-0 63842-4 0 7441 2 33591 098.8977 030.4339 0013092 299.2957 106.7190 14.11476899213146 HUBBLE 1 20580U 90037B 13087.14996437 .00001496 00000-0 95088-4 0 2049 2 20580 028.4704 083.9818 0003069 204.4496 244.7647 15.03400171 57486 ISS 1 25544U 98067A 13087.90894676 .00007065 00000-0 12159-3 0 5016 2 25544 051.6470 146.8552 0012293 082.1190 252.1663 15.52229952822238 CO-58 1 28895U 05043F 13086.66021514 .00000474 00000-0 10544-3 0 4376 2 28895 097.8804 305.9249 0016956 343.0346 048.9464 14.61009005395044 FALCON 1 30776U 07006E 13087.10532756 .00004021 00000-0 24564-3 0 5799 2 30776 035.4318 339.5860 0002412 303.5679 172.1944 15.09882227333152 MAST 1 31126U 07012K 13086.63727198 .00000424 00000-0 10455-3 0 7147 2 31126 097.8796 087.2290 0091927 307.3873 162.7016 14.54481747315465 CAPE1 1 31130U 07012P 13087.43039144 .00000636 00000-0 15390-3 0 7258 2 31130 097.8955 084.3022 0099620 320.1739 039.2176 14.53367929315043 COMPASS 1 32787U 08021E 13087.85792941 .00001491 00000-0 18014-3 0 5800 2 32787 097.7609 148.4906 0014781 201.7533 272.4674 14.85127445266042 AAUSAT2 1 32788U 08021F 13087.13820969 .00001801 00000-0 21419-3 0 5677 2 32788 097.7614 148.3548 0014326 203.9284 208.4517 14.85552804265979 DO-64 1 32789U 08021G 13087.22297019 .00003037 00000-0 33745-3 0 5940 2 32789 097.7758 151.7539 0014110 198.0059 194.5826 14.87860763266081 CO-66 1 32791U 08021J 13087.71582861 .00001278 00000-0 15828-3 0 5643 2 32791 097.7610 147.8147 0015189 203.4116 303.2638 14.84337005265932 RS-30 1 32953U 08025A 13087.57310257 .00000010 00000-0 00000 0 0 7174 2 32953 082.4990 118.3267 0019969 051.5030 308.7837 12.43032374219896 METEOR-M 1 35865U 09049A 13087.72372075 -.00000015 00000-0 12805-4 0 3183 2 35865 098.6125 142.0886 0002096 330.2766 029.8285 14.21881864183035 RS-38 1 35869U 09049E 13087.77059994 .00000010 00000-0 24174-4 0 2943 2 35869 098.6063 142.0706 0004251 318.4751 041.6103 14.22117960183062 JUGNU 1 37839U 11058B 13086.41602406 .00000388 00000-0 65880-4 0 3552 2 37839 019.9619 082.2387 0019252 102.0554 026.9174 14.12135070 75323 SRMSAT 1 37841U 11058D 13086.43171116 .00000365 00000-0 56032-4 0 3572 2 37841 019.9722 092.5824 0012151 059.0877 065.2871 14.10208926 75218 RAX-2 1 37853U 11061D 13087.49121953 .00005296 00000-0 40873-3 0 4596 2 37853 101.7160 263.7829 0238381 258.6051 170.5536 14.82609181 76485 AUBIESAT 1 37854U 11061E 13087.48434751 .00005209 00000-0 39464-3 0 4575 2 37854 101.7196 264.4786 0238619 257.4524 167.9083 14.83226544 76498 HRBE 1 37855U 11061F 13087.07558248 .00004538 00000-0 34682-3 0 4536 2 37855 101.7195 263.6985 0239500 259.0016 214.4614 14.82945366 76424 RS-39 1 38051U 11062C 13087.81341111 .00008379 00000-0 29425-3 0 2968 2 38051 051.6362 237.8042 0011621 335.8321 176.9709 15.30176483 65462 E-STAR 1 38079U 12006C 13087.93304895 .00028714 32066-5 61719-3 0 22 2 38079 069.4830 013.8607 0654076 242.4861 197.0599 14.37263163 58176 GOLIAT 1 38085U 12006J 13087.81650180 .00024065 31597-5 52277-3 0 9264 2 38085 069.4910 015.7414 0661546 243.3837 109.8354 14.35586013 58116 HORYU-2 1 38340U 12025D 13087.08088818 .00000685 00000-0 12076-3 0 4373 2 38340 098.2082 034.0791 0013014 145.8808 214.3196 14.70706983 46197 RS-40 1 38736U 12041D 13087.65901372 .00000010 00000-0 00000 0 0 2248 2 38736 082.4793 205.3239 0021592 135.7742 224.5069 12.43229816 30249 PROITERES 1 38756U 12047B 13087.81862991 .00000378 00000-0 65331-4 0 6353 2 38756 098.2579 163.3724 0012875 008.5732 351.5682 14.74119053 29551 RAIKO 1 38852U 98067CN 13087.58347312 .00053496 00000-0 53416-3 0 1764 2 38852 051.6395 140.8586 0015575 053.9775 306.2662 15.64936627 27191 FITSAT 1 1 38853U 98067CP 13087.62269985 .00074615 00000-0 64595-3 0 1787 2 38853 051.6416 138.8910 0012555 060.2035 300.0209 15.68389512 27276 TechEdSat 1 38854U 98067CQ 13087.54862707 .00188345 00000-0 10053-2 0 2056 2 38854 051.6352 134.5804 0012614 051.9633 308.2505 15.79190033 27323 F 1 1 38855U 98067CR 13087.40681058 .00159116 00000-0 91389-3 0 2034 2 38855 051.6340 135.8772 0012321 052.1676 308.0438 15.77654856 27187 WeWish 1 38856U 98067CS 13069.98095549 .16701328 12537-4 10063-2 0 2487 2 38856 051.6166 215.0521 0008325 316.0438 044.8765 16.41348316 24586 /EX
participants (1)
-
Ray Hoad